CAPE
1296 1514 1424 1384 1365 1396 1266 822 547 261 242 515 733 717 525 437 466 237 17 26 37 85 158 142 156 88 14 0 4 3 28 13 8 1 0 3 3 4 2 2 4 3 5
1388 1720 1520 1613 1561 1508 1296 1073 897 621 410 645 799 749 726 573 549 351 78 14 51 112 167 186 137 92 0 0 0 0 13 25 30 29 3 0 0 4 3 3 3 4 4
1423 1835 1638 1675 1622 1573 1300 1140 1041 924 797 697 868 700 451 755 538 528 283 36 107 97 90 95 215 165 0 0 0 0 2 44 42 46 43 5 0 0 2 3 2 6 3
1543 1708 1727 1663 1697 1589 1464 1297 1182 1066 954 939 746 630 567 580 357 635 506 247 131 166 130 101 262 222 8 3 74 23 17 18 57 58 42 23 0 0 3 3 4 2 5
1790 1536 1847 1727 1786 1742 1582 1392 1217 1114 828 866 863 849 541 174 337 537 535 440 233 148 116 137 102 143 110 92 88 85 18 57 34 80 40 0 0 0 0 2 4 4 2
1906 1712 1812 1864 1794 1776 1617 1543 1415 1204 930 777 864 797 622 398 338 442 462 486 386 230 128 87 39 34 31 137 108 55 153 85 85 68 35 0 0 0 0 0 4 5 4
1978 1856 1824 1785 1790 1556 1607 1713 1464 1318 1180 1077 986 791 721 569 405 333 433 395 310 207 216 142 78 38 18 3 47 55 145 152 117 89 80 18 1 0 0 0 3 8 7
1587 1742 1658 1807 1828 1738 1485 1667 1696 1488 1425 1138 955 757 751 769 674 575 472 410 271 233 132 133 120 93 24 17 32 51 106 209 149 119 76 67 0 0 0 0 0 6 8
1373 1178 1211 1686 1597 1621 1551 1574 1532 1455 1310 1139 878 593 354 209 364 539 474 377 346 311 251 154 134 126 62 39 34 23 29 58 74 62 88 73 0 0 0 0 0 3 8
1217 1362 1153 1408 1687 1300 1296 1401 1304 1035 774 829 759 612 255 298 12 48 444 390 394 455 467 333 218 163 149 89 68 45 12 0 1 47 43 61 10 0 0 0 0 0 2
1097 1197 1130 1171 1336 1151 951 852 948 856 669 617 505 466 767 545 564 630 198 448 428 434 391 308 294 155 158 151 98 66 30 1 0 2 46 43 40 0 0 0 0 4 0
741 976 1072 1087 1135 1033 844 751 732 686 617 530 517 349 431 609 413 381 491 276 331 320 280 188 262 226 154 147 110 63 35 28 0 0 2 28 55 30 7 5 11 6 0
0 0 38 258 417 982 852 824 734 957 794 704 582 411 382 352 240 253 264 173 107 131 163 135 95 173 175 144 133 41 40 22 6 0 0 0 30 34 13 2 19 18 9
0 0 0 0 0 1 827 936 773 1139 1063 876 724 518 469 380 310 313 359 210 85 113 55 128 117 107 101 85 77 53 52 15 1 0 0 0 0 12 10 4 28 38 55
5 0 0 1 0 0 0 80 699 821 924 843 831 718 546 536 550 457 332 253 172 34 22 57 46 77 87 115 117 97 43 0 0 0 0 0 0 1 1 1 11 7 46
9 2 4 7 6 1 0 8 2 3 34 323 766 813 775 746 673 531 436 329 185 128 41 12 8 64 89 46 60 91 50 0 0 0 0 0 0 0 1 0 0 0 13
9 11 10 9 9 9 8 8 8 7 6 5 4 1 51 168 658 583 501 413 196 190 96 17 22 46 54 33 45 36 21 0 0 0 0 0 0 0 0 0 0 0 3
3 4 6 5 8 7 5 5 8 4 7 6 8 7 6 6 3 2 20 323 302 220 200 83 0 0 13 29 24 24 10 8 3 0 0 0 0 0 0 0 0 0 0
2 3 3 4 4 4 5 3 1 1 3 6 5 8 9 7 5 10 4 6 3 138 117 51 1 17 30 17 7 8 0 0 0 0 0 0 0 0 0 0 0 0 0
1 2 4 3 3 3 3 2 0 0 0 3 3 3 5 9 9 8 3 8 6 4 17 123 103 167 71 0 17 15 6 1 0 0 0 0 0 0 0 0 0 0 0
1 2 2 1 1 2 2 1 2 3 3 2 3 2 3 3 5 6 7 7 6 3 6 3 18 73 51 1 36 17 32 3 0 0 0 0 0 0 0 1 1 0 0
2 1 0 1 0 1 1 1 2 0 1 3 4 2 2 1 2 0 3 1 0 4 7 8 7 1 3 1 31 4 16 3 1 0 0 0 0 0 1 1 1 0 0
1 1 0 1 0 0 1 1 1 2 1 1 1 2 1 2 2 2 0 0 1 1 1 6 7 5 2 1 1 1 5 1 0 0 1 1 1 0 0 0 1 1 0
2 1 0 0 1 1 2 0 0 0 1 1 1 1 1 0 1 2 2 2 1 0 2 3 3 3 4 4 3 4 0 1 0 0 1 0 1 0 3 3 2 1 0
0 1 1 1 0 0 1 1 0 1 0 1 1 0 1 1 1 0 2 2 2 0 0 0 0 0 2 5 5 2 0 2 0 0 0 0 1 1 7 4 6 5 3
0 0 0 0 0 0 0 0 0 1 0 0 1 1 1 1 1 2 0 2 3 2 0 0 0 0 0 0 0 3 5 0 1 0 0 0 0 2 0 6 6 6 7
CIN
-82 -46 -50 -48 -51 -43 -31 -78 -114 -197 -194 -84 -52 -38 -30 -39 -37 -55 -150 -168 -154 -105 -73 -57 -39 -41 -50 -0 -61 -41 -35 -24 -19 -16 -0 -14 -8 -6 -2 -2 -2 -4 -3
-55 -18 -37 -28 -31 -36 -34 -45 -56 -80 -107 -57 -19 -21 -15 -19 -32 -71 -115 -192 -143 -107 -58 -50 -44 -45 -0 -0 -0 -0 -42 -27 -21 -32 -6 -0 -1 -5 -4 -2 -1 -1 -2
-55 -15 -30 -36 -36 -47 -45 -26 -25 -34 -29 -38 -16 -7 -10 -12 -38 -51 -94 -180 -116 -83 -73 -70 -45 -40 -0 -0 -0 -0 -34 -22 -19 -21 -46 -59 -0 -0 -3 -2 -1 -2 -2
-41 -16 -18 -36 -38 -35 -36 -20 -18 -25 -33 -34 -30 -26 -13 -15 -12 -31 -52 -93 -109 -82 -74 -78 -44 -31 -20 -6 -18 -43 -47 -29 -15 -16 -36 -89 -0 -0 -3 -1 -1 -1 -1
-31 -30 -22 -40 -30 -23 -40 -30 -36 -26 -31 -27 -29 -23 -24 -42 -17 -16 -39 -52 -77 -101 -92 -83 -79 -43 -35 -26 -18 -19 -36 -17 -18 -9 -22 -0 -0 -0 -0 -5 -1 -1 -1
-31 -23 -20 -21 -24 -25 -41 -34 -17 -27 -38 -26 -19 -24 -34 -41 -29 -23 -23 -42 -52 -68 -82 -92 -126 -122 -67 -31 -20 -17 -4 -5 -5 -4 -7 -0 -0 -0 -0 -0 -1 -1 -1
-31 -21 -23 -18 -21 -42 -48 -33 -28 -20 -24 -18 -10 -18 -34 -52 -59 -44 -21 -19 -42 -63 -74 -84 -92 -127 -126 -62 -48 -25 -6 -0 -0 -0 -1 -26 -12 -0 -0 -0 -4 -2 -0
-39 -30 -28 -23 -27 -41 -37 -18 -19 -25 -9 -13 -5 -19 -17 -12 -56 -58 -57 -62 -62 -59 -89 -86 -95 -136 -128 -145 -115 -58 -23 -1 -0 -1 -1 -9 -0 -0 -0 -0 -1 -3 -1
-23 -46 -42 -25 -29 -31 -35 -33 -28 -35 -26 -25 -31 -40 -56 -131 -111 -100 -119 -121 -121 -105 -96 -98 -117 -116 -136 -156 -155 -128 -74 -38 -13 -5 -2 -3 -0 -0 -0 -0 -0 -3 -1
-7 -37 -69 -37 -37 -53 -51 -60 -56 -65 -78 -56 -48 -75 -122 -133 -179 -135 -125 -158 -132 -100 -79 -95 -99 -124 -132 -145 -146 -142 -112 -0 -2 -13 -5 -0 -7 -0 -0 -0 -0 -0 -5
-6 -25 -46 -56 -55 -60 -103 -119 -92 -82 -110 -108 -105 -118 -56 -61 -63 -29 -112 -114 -135 -137 -103 -101 -104 -109 -126 -131 -133 -132 -131 -9 -0 -23 -7 -2 -0 -0 -0 -0 -0 -9 -8
-5 -2 -38 -24 -21 -57 -115 -150 -131 -116 -122 -124 -108 -134 -130 -65 -119 -65 -48 -104 -85 -123 -130 -94 -66 -89 -89 -120 -123 -131 -133 -135 -0 -0 -22 -5 -2 -1 -14 -17 -15 -11 -4
-0 -0 -9 -126 -52 -22 -47 -95 -89 -62 -93 -84 -109 -151 -137 -143 -168 -123 -44 -85 -72 -106 -74 -86 -102 -88 -84 -114 -134 -133 -118 -128 -111 -0 -0 -1 -6 -4 -6 -28 -15 -24 -26
-0 -0 -0 -0 -0 -0 -7 -18 -33 -21 -24 -41 -59 -76 -90 -127 -126 -135 -49 -41 -50 -43 -61 -42 -84 -96 -107 -125 -157 -151 -110 -128 -15 -0 -0 -0 -0 -10 -16 -21 -10 -13 -9
-0 -0 -0 -0 -0 -0 -0 -89 -10 -18 -19 -35 -47 -46 -42 -66 -44 -85 -41 -19 -29 -41 -57 -47 -50 -104 -95 -103 -121 -91 -114 -0 -0 -0 -0 -0 -0 -7 -22 -53 -18 -27 -18
-0 -0 -0 -0 -0 -0 -0 -0 -0 -0 -63 -44 -2 -8 -14 -28 -8 -40 -42 -22 -33 -10 -13 -91 -66 -57 -94 -72 -97 -75 -94 -0 -0 -0 -0 -0 -0 -0 -10 -0 -0 -0 -20
-0 -0 -0 -0 -0 -0 -0 -0 -0 -0 -0 -0 -0 -0 -24 -106 -0 -15 -19 -21 -36 -25 -6 -65 -67 -69 -58 -82 -76 -105 -121 -0 -0 -0 -0 -0 -0 -0 -0 -0 -0 -0 -23
-0 -0 -0 -0 -0 -0 -0 -0 -0 -0 -0 -0 -0 -0 -0 -0 -0 -0 -1 -13 -4 -18 -5 -52 -2 -0 -76 -83 -92 -76 -129 -145 -114 -0 -0 -0 -0 -0 -0 -0 -0 -0 -0
-0 -0 -0 -0 -0 -0 -0 -0 -0 -0 -0 -0 -0 -0 -0 -0 -0 -0 -0 -0 -0 -26 -23 -16 -18 -121 -90 -85 -104 -75 -0 -0 -0 -0 -0 -0 -0 -0 -0 -0 -0 -0 -0
-0 -0 -0 -0 -0 -0 -0 -0 -0 -0 -0 -0 -0 -0 -0 -0 -0 -0 -0 -0 -0 -0 -4 -1 -5 -0 -17 -3 -31 -34 -10 -21 -0 -0 -0 -0 -0 -0 -0 -0 -0 -0 -0
-0 -0 -0 -0 -0 -0 -0 -0 -0 -0 -0 -0 -0 -0 -0 -0 -0 -0 -0 -0 -0 -0 -0 -0 -2 -1 -10 -3 -24 -14 -16 -47 -0 -0 -0 -0 -0 -0 -0 -0 -0 -0 -0
-0 -0 -0 -0 -0 -0 -0 -0 -0 -0 -0 -0 -0 -0 -0 -0 -0 -0 -0 -0 -0 -0 -0 -0 -0 -0 -0 -0 -21 -50 -21 -12 -0 -0 -0 -0 -0 -0 -0 -0 -0 -0 -0
-0 -0 -0 -0 -0 -0 -0 -0 -0 -0 -0 -0 -0 -0 -0 -0 -0 -0 -0 -0 -0 -0 -0 -0 -0 -0 -0 -0 -0 -0 -2 -16 -0 -0 -0 -0 -0 -0 -0 -0 -0 -0 -0
-0 -0 -0 -0 -0 -0 -0 -0 -0 -0 -0 -0 -0 -0 -0 -0 -0 -0 -0 -0 -0 -0 -0 -0 -0 -0 -0 -0 -0 -0 -0 -0 -0 -0 -0 -0 -0 -0 -0 -0 -0 -0 -0
-0 -0 -0 -0 -0 -0 -0 -0 -0 -0 -0 -0 -0 -0 -0 -0 -0 -0 -0 -0 -0 -0 -0 -0 -0 -0 -0 -0 -0 -0 -0 -0 -0 -0 -0 -0 -0 -0 -0 -0 -0 -0 -0
-0 -0 -0 -0 -0 -0 -1 -0 -0 -0 -0 -0 -1 -1 -1 -1 -0 -0 -0 -0 -0 -0 -0 -0 -0 -0 -0 -0 -0 -0 -0 -0 -0 -0 -0 -0 -0 -0 -0 -0 -0 -0 -0
Wind_Speed
12 10 7 6 4 3 3 3 5 4 6 7 3 5 5 7 7 7 6 7 7 8 9 10 10 9 8 7 5 6 9 11 4 3 1 5 8 7 5 5 4 2 2
16 13 9 7 6 5 5 4 4 5 4 7 7 5 4 5 5 5 5 5 5 6 7 8 8 7 7 6 5 7 10 10 5 7 3 8 8 7 7 6 5 3 1
18 15 13 10 8 7 6 6 4 5 3 2 3 2 3 5 5 4 4 3 5 6 5 5 5 5 6 5 5 5 5 6 7 8 9 7 9 8 9 7 6 4 3
20 19 16 14 11 9 8 8 6 5 6 2 1 2 1 4 5 5 3 3 2 2 4 4 4 4 5 6 6 6 7 9 7 7 9 7 8 9 9 7 9 6 5
22 21 19 15 13 12 10 9 8 7 5 4 3 3 2 3 4 6 3 1 1 0 1 5 4 5 5 5 6 6 7 7 8 8 9 10 7 5 7 10 10 9 8
25 24 22 18 16 15 13 11 10 10 8 5 5 5 5 4 4 5 6 4 4 2 2 1 5 5 7 6 7 8 7 7 7 7 9 9 10 9 9 11 13 11 10
29 27 25 20 18 18 16 13 11 10 10 9 5 6 10 8 5 4 4 4 6 4 3 3 2 2 3 7 8 8 9 9 9 9 9 9 9 10 11 11 16 14 13
34 30 28 27 21 20 18 16 14 15 14 10 9 10 10 12 10 7 6 7 7 7 6 4 4 4 4 4 5 9 9 10 11 10 10 10 10 11 12 12 13 18 16
35 32 32 32 27 24 21 19 18 16 16 14 12 15 14 10 11 9 9 8 7 7 8 7 6 7 5 5 5 5 9 11 13 11 12 12 12 12 12 13 14 15 21
38 36 33 33 31 29 26 22 20 19 18 18 18 13 14 15 11 15 12 8 9 9 9 10 9 9 8 8 7 6 7 11 13 13 13 14 14 14 14 15 16 17 18
48 40 36 34 33 30 28 26 24 23 21 21 18 18 15 15 13 14 19 15 10 14 14 13 11 11 11 10 10 9 9 8 12 14 14 15 16 17 16 17 17 19 20
50 46 42 37 33 31 29 26 24 24 23 22 19 18 17 15 15 15 17 18 16 13 12 19 17 13 14 14 14 11 11 11 11 13 15 16 18 19 18 17 18 20 21
34 39 29 33 33 33 32 29 27 25 24 22 21 20 17 16 17 15 17 20 19 17 17 17 23 19 17 17 15 13 12 12 12 13 14 16 18 20 20 20 20 21 23
28 27 30 15 20 24 29 32 29 27 24 22 22 21 23 20 20 18 19 19 23 20 19 19 18 20 19 22 19 15 14 12 12 12 13 14 19 20 22 21 22 22 21
26 27 21 17 21 22 25 39 32 26 26 24 22 18 22 23 23 23 21 21 23 28 24 23 24 20 23 21 20 17 15 13 12 12 14 15 17 21 22 24 24 24 23
17 15 19 20 17 19 38 29 9 15 21 26 26 27 27 25 26 25 26 24 27 31 32 23 28 21 16 20 19 16 16 14 14 14 14 15 17 19 22 24 25 25 25
13 13 13 17 20 19 19 17 15 19 23 26 27 28 30 36 33 32 30 29 25 25 27 26 31 32 27 22 21 19 18 16 14 14 14 15 16 18 22 25 26 27 27
11 14 15 16 17 13 15 15 16 19 23 25 28 28 32 34 34 35 35 29 30 27 28 31 36 35 31 30 24 21 19 19 20 16 16 16 17 18 22 26 29 30 29
14 18 17 18 17 16 16 19 18 20 23 25 28 29 33 35 36 39 39 41 42 35 33 36 45 35 27 28 26 25 24 24 24 22 18 18 18 18 21 26 30 32 32
17 17 19 23 20 20 18 18 19 21 23 25 28 29 32 35 37 40 40 43 43 47 44 39 36 32 37 30 29 29 34 30 29 25 23 20 21 20 20 24 28 34 35
25 21 21 22 22 22 23 21 22 23 24 26 29 31 32 35 37 38 38 40 42 47 45 43 41 38 36 35 32 30 33 30 29 28 26 25 23 23 23 22 23 28 35
26 25 24 26 27 27 27 27 25 25 28 28 30 34 32 35 36 38 38 37 35 37 37 33 38 42 42 37 38 34 29 30 35 27 29 30 25 25 23 24 22 23 30
26 26 26 26 28 30 31 30 29 27 29 29 29 31 33 33 37 38 37 35 34 37 38 38 40 39 42 39 42 43 32 35 32 29 26 32 28 26 25 23 22 21 25
27 28 29 29 29 31 33 32 31 31 30 30 31 33 35 35 37 38 36 36 36 37 38 38 37 40 39 42 42 42 46 42 39 30 22 28 28 29 26 25 23 23 25
28 29 30 31 32 32 35 35 33 32 32 33 33 35 36 37 39 40 38 38 38 38 37 38 36 37 38 39 40 43 42 42 35 32 28 27 28 29 29 28 28 25 26
32 32 32 34 34 34 36 37 36 35 36 36 35 36 39 40 40 40 39 39 41 42 41 41 39 38 37 38 39 38 38 41 39 37 33 32 31 29 33 31 29 28 25
Wind_Direction
253 250 246 230 234 229 207 166 142 136 137 136 97 99 30 16 34 18 61 101 85 85 96 109 109 109 110 112 85 107 125 140 137 160 264 304 306 299 301 297 294 299 93
257 250 242 237 236 237 239 213 175 144 141 141 140 120 66 30 41 45 54 87 104 103 106 108 115 120 128 125 110 125 140 144 145 160 210 283 290 287 285 282 277 269 183
247 246 239 237 235 225 208 209 198 171 164 152 144 24 16 8 14 24 36 57 116 125 122 120 118 124 135 134 134 138 139 144 148 154 164 269 277 281 276 266 262 251 234
242 246 242 240 233 229 218 203 212 197 176 195 193 332 22 352 351 4 16 22 51 108 148 155 149 146 151 158 152 161 168 172 169 174 167 173 268 278 271 260 261 245 231
243 243 241 241 234 239 233 224 235 228 211 238 279 306 315 326 330 336 345 4 28 340 166 184 178 180 181 180 178 173 178 185 184 180 186 185 185 238 254 257 255 249 239
241 245 248 244 237 244 240 235 241 254 252 232 279 286 295 293 292 306 317 323 322 313 304 254 199 206 201 201 198 195 192 199 201 206 202 203 209 214 199 248 254 239 239
243 241 244 242 235 239 240 231 244 240 260 261 275 296 299 299 291 284 293 285 305 296 295 279 254 268 241 216 215 210 206 207 209 214 217 225 223 215 213 206 250 242 241
243 237 240 244 236 237 239 238 238 262 266 260 271 302 309 310 294 267 274 278 267 281 284 282 277 273 288 275 238 217 217 214 212 218 222 223 223 230 225 223 220 247 245
240 238 243 243 242 241 238 241 242 246 251 254 261 288 305 301 312 290 253 266 267 265 275 269 276 277 276 286 278 247 226 220 217 224 224 228 223 217 225 224 225 224 248
248 238 238 240 237 240 241 243 246 248 258 254 265 251 287 316 314 320 315 285 277 275 278 283 278 274 274 281 274 275 256 227 221 226 228 227 230 224 222 220 218 227 228
252 244 235 236 238 238 240 242 248 251 252 261 258 270 257 279 298 310 312 309 295 287 286 281 283 280 277 277 278 273 266 249 228 228 228 226 228 231 234 232 228 226 227
254 252 236 232 238 238 240 239 244 249 251 255 259 263 269 262 259 278 291 302 296 293 280 294 285 280 281 279 281 270 264 254 244 236 232 233 226 228 234 229 229 223 226
258 266 249 225 238 241 245 245 247 248 247 250 257 265 268 267 279 278 278 294 296 299 301 289 288 286 279 277 282 273 261 255 251 242 236 231 227 224 229 228 220 220 221
262 284 308 238 247 258 252 250 247 247 248 252 262 268 277 278 279 277 285 286 295 297 300 298 294 286 282 277 279 273 276 254 257 248 237 233 221 222 222 224 219 220 219
270 270 300 277 247 257 283 259 246 246 253 260 267 273 278 285 283 284 285 283 290 299 294 299 295 294 285 279 277 273 273 261 259 254 245 239 228 225 223 219 217 212 218
284 287 263 302 281 292 268 298 278 282 274 278 281 283 285 287 289 291 288 284 294 292 292 303 296 299 289 283 278 270 269 267 269 269 254 244 236 230 225 219 215 215 217
303 324 312 294 307 301 305 294 305 295 293 292 297 303 297 293 293 295 295 291 282 285 281 292 296 297 293 285 281 273 271 268 272 265 263 249 245 236 225 215 216 216 218
355 355 334 336 336 310 303 317 311 308 303 301 304 311 304 305 305 306 302 295 292 289 286 284 295 298 282 284 282 273 273 276 280 271 259 262 254 240 228 222 217 218 218
2 17 11 360 344 334 323 328 325 314 312 313 314 311 310 309 306 305 304 301 300 296 290 291 292 294 281 283 282 281 278 281 286 284 268 266 261 251 236 228 223 218 218
9 5 1 5 351 343 336 339 332 334 334 327 323 316 317 316 313 309 305 303 301 297 293 292 293 289 286 284 277 279 281 284 283 284 282 276 271 263 249 237 230 224 220
21 10 11 5 0 353 348 346 348 344 338 337 332 326 323 322 321 315 314 310 304 299 296 291 291 288 284 286 284 288 281 280 281 280 283 281 276 273 271 258 247 232 218
24 24 18 16 15 8 1 359 354 351 348 340 331 329 326 328 322 320 320 317 313 311 304 299 296 289 287 284 289 286 278 279 282 279 281 281 276 274 273 271 258 241 221
22 21 16 10 10 8 5 4 2 358 356 348 344 336 335 334 331 324 323 321 316 308 307 306 299 296 288 290 292 290 275 279 276 282 277 277 277 272 279 276 267 245 233
19 19 18 14 11 9 5 4 1 359 354 353 348 343 338 333 335 333 327 324 318 319 313 305 304 295 297 295 293 290 285 278 281 278 267 275 278 275 278 276 271 260 254
11 11 12 9 5 1 359 358 354 352 349 346 344 344 342 340 339 337 333 328 324 323 320 314 313 306 303 302 300 295 290 287 272 273 268 274 276 272 275 272 270 267 260
12 10 6 4 1 357 355 353 352 348 343 340 341 339 338 337 336 335 334 330 322 322 321 319 318 317 312 306 307 302 295 287 282 277 276 268 270 268 273 272 267 263 264